Year,Month,Day,Hour,Minute,Value (Times are PST for windspeed in km/hr)
2009,03,28,00,00,0.00
2009,03,28,00,01,0.00
2009,03,28,00,02,1.20
2009,03,28,00,03,2.90
2009,03,28,00,04,0.10
2009,03,28,00,05,0.00
2009,03,28,00,06,0.00
2009,03,28,00,07,0.40
2009,03,28,00,08,1.00
2009,03,28,00,09,0.10
2009,03,28,00,10,0.30
2009,03,28,00,11,0.00
2009,03,28,00,12,2.30
2009,03,28,01,02,0.20
2009,03,28,01,03,0.00
2009,03,28,01,04,0.00
2009,03,28,01,05,0.00
2009,03,28,01,06,0.00
2009,03,28,01,07,0.00
2009,03,28,01,08,0.80
2009,03,28,01,09,1.40
2009,03,28,01,10,0.00
2009,03,28,01,11,0.30
2009,03,28,01,12,0.60
2009,03,28,01,13,0.90
2009,03,28,01,14,0.60
2009,03,28,01,15,0.40
2009,03,28,01,16,0.40
2009,03,28,01,17,0.30
2009,03,28,01,18,0.00
2009,03,28,01,19,0.00
2009,03,28,01,20,1.40
2009,03,28,01,21,0.00
2009,03,28,01,22,0.10
2009,03,28,01,23,0.30
2009,03,28,01,24,0.30
2009,03,28,01,25,0.10
2009,03,28,01,26,0.90
2009,03,28,01,27,1.30
2009,03,28,01,28,0.00
2009,03,28,01,29,0.10
2009,03,28,01,30,0.30
2009,03,28,01,31,0.60
2009,03,28,01,32,0.10
2009,03,28,01,33,0.00
2009,03,28,01,34,0.30
2009,03,28,01,35,0.20
2009,03,28,01,36,0.00
2009,03,28,01,37,0.00
2009,03,28,01,38,0.00
2009,03,28,01,39,0.40
2009,03,28,01,40,1.50
2009,03,28,01,41,1.10
2009,03,28,01,42,0.50
2009,03,28,01,43,0.00
2009,03,28,01,44,0.00
2009,03,28,01,45,0.60
2009,03,28,01,46,2.30
2009,03,28,01,47,0.10
2009,03,28,01,48,0.80
2009,03,28,01,49,0.70
2009,03,28,01,50,0.00
2009,03,28,01,51,0.20
2009,03,28,01,52,1.10
2009,03,28,01,53,0.10
2009,03,28,01,54,1.00
2009,03,28,01,55,1.60
2009,03,28,01,56,0.10
2009,03,28,01,57,0.00
2009,03,28,01,58,0.70
2009,03,28,01,59,1.70
2009,03,28,02,00,0.10
2009,03,28,02,01,0.60
2009,03,28,02,02,0.40
2009,03,28,02,03,0.50
2009,03,28,02,04,0.90
2009,03,28,02,05,0.10
2009,03,28,02,06,1.00
2009,03,28,02,07,0.20
2009,03,28,02,08,0.00
2009,03,28,02,09,0.30
2009,03,28,02,10,0.00
2009,03,28,02,11,0.20
2009,03,28,02,12,0.40
2009,03,28,02,13,0.20
2009,03,28,02,14,0.00
2009,03,28,02,15,0.80
2009,03,28,02,16,1.40
2009,03,28,02,17,0.00
2009,03,28,02,18,0.10
2009,03,28,02,19,0.00
2009,03,28,02,20,0.10
2009,03,28,02,21,0.80
2009,03,28,02,22,0.70
2009,03,28,02,23,0.00
2009,03,28,02,24,1.60
2009,03,28,02,25,0.60
2009,03,28,02,26,0.20
2009,03,28,02,27,0.40
2009,03,28,02,28,0.10
2009,03,28,02,29,0.50
2009,03,28,02,30,0.20
2009,03,28,02,31,0.60
2009,03,28,02,32,1.40
2009,03,28,02,33,0.40
2009,03,28,02,34,0.00
2009,03,28,02,35,0.30
2009,03,28,02,36,0.00
2009,03,28,02,37,0.10
2009,03,28,02,38,0.90
2009,03,28,02,39,0.00
2009,03,28,02,40,0.60
2009,03,28,02,41,0.80
2009,03,28,02,42,0.10
2009,03,28,02,43,0.00
2009,03,28,02,44,0.80
2009,03,28,02,45,0.90
2009,03,28,02,46,0.30
2009,03,28,02,47,0.80
2009,03,28,02,48,0.30
2009,03,28,02,49,0.10
2009,03,28,02,50,0.00
2009,03,28,02,51,0.30
2009,03,28,02,52,0.30
2009,03,28,02,53,0.10
2009,03,28,02,54,0.30
2009,03,28,02,55,0.00
2009,03,28,02,56,0.10
2009,03,28,02,57,1.90
2009,03,28,02,58,0.00
2009,03,28,02,59,0.00
2009,03,28,03,00,0.10
2009,03,28,03,01,0.30
2009,03,28,03,02,0.00
2009,03,28,03,03,0.00
2009,03,28,03,04,0.00
2009,03,28,03,05,0.00
2009,03,28,03,06,0.00
2009,03,28,03,07,0.00
2009,03,28,03,08,0.00
2009,03,28,03,09,0.00
2009,03,28,03,10,0.00
2009,03,28,03,11,0.00
2009,03,28,03,12,0.00
2009,03,28,03,13,0.10
2009,03,28,03,14,0.00
2009,03,28,03,15,0.00
2009,03,28,03,16,0.00
2009,03,28,03,17,0.00
2009,03,28,03,18,0.10
2009,03,28,03,19,0.00
2009,03,28,03,20,0.00
2009,03,28,03,21,0.00
2009,03,28,03,22,0.00
2009,03,28,03,23,0.00
2009,03,28,03,24,0.00
2009,03,28,03,25,0.00
2009,03,28,03,26,0.00
2009,03,28,03,27,0.00
2009,03,28,03,28,0.00
2009,03,28,03,29,0.00
2009,03,28,03,30,0.00
2009,03,28,03,31,0.00
2009,03,28,03,32,0.00
2009,03,28,03,33,0.00
2009,03,28,03,34,0.00
2009,03,28,03,35,0.00
2009,03,28,03,36,0.00
2009,03,28,03,37,0.00
2009,03,28,03,38,0.00
2009,03,28,03,39,0.00
2009,03,28,03,40,0.00
2009,03,28,03,41,0.00
2009,03,28,03,42,0.00
2009,03,28,03,43,0.00
2009,03,28,03,44,0.00
2009,03,28,03,45,0.00
2009,03,28,03,46,0.00
2009,03,28,03,47,0.00
2009,03,28,03,48,0.00
2009,03,28,03,49,0.20
2009,03,28,03,50,0.30
2009,03,28,03,51,0.30
2009,03,28,03,52,0.20
2009,03,28,03,53,0.00
2009,03,28,03,54,0.00
2009,03,28,03,55,0.00
2009,03,28,03,56,0.00
2009,03,28,03,57,0.00
2009,03,28,03,58,0.00
2009,03,28,03,59,0.00
2009,03,28,04,00,0.00
2009,03,28,04,01,0.00
2009,03,28,04,02,0.00
2009,03,28,04,03,0.00
2009,03,28,04,04,0.00
2009,03,28,04,05,0.00
2009,03,28,04,06,0.00
2009,03,28,04,07,0.00
2009,03,28,04,08,0.00
2009,03,28,04,09,0.00
2009,03,28,04,10,0.00
2009,03,28,04,11,0.10
2009,03,28,04,12,1.60
2009,03,28,04,13,0.20
2009,03,28,04,14,0.00
2009,03,28,04,15,0.00
2009,03,28,04,16,0.00
2009,03,28,04,17,0.00
2009,03,28,04,18,0.00
2009,03,28,04,19,0.10
2009,03,28,04,20,0.00
2009,03,28,04,21,0.00
2009,03,28,04,22,0.00
2009,03,28,04,23,0.00
2009,03,28,04,24,0.00
2009,03,28,04,25,0.00
2009,03,28,04,26,0.00
2009,03,28,04,27,0.00
2009,03,28,04,28,0.00
2009,03,28,04,29,0.00
2009,03,28,04,30,0.00
2009,03,28,04,31,0.00
2009,03,28,04,32,0.00
2009,03,28,04,33,0.00
2009,03,28,04,34,0.00
2009,03,28,04,35,0.00
2009,03,28,04,36,0.00
2009,03,28,04,37,0.00
2009,03,28,04,38,0.00
2009,03,28,04,39,0.00
2009,03,28,04,40,0.00
2009,03,28,04,41,0.00
2009,03,28,04,42,0.00
2009,03,28,04,43,0.00
2009,03,28,04,44,0.00
2009,03,28,04,45,0.00
2009,03,28,04,46,0.00
2009,03,28,04,47,0.00
2009,03,28,04,48,0.60
2009,03,28,04,49,0.70
2009,03,28,04,50,0.00
2009,03,28,04,51,0.00
2009,03,28,04,52,0.00
2009,03,28,04,53,0.00
2009,03,28,04,54,0.00
2009,03,28,04,55,0.00
2009,03,28,04,56,0.20
2009,03,28,04,57,0.00
2009,03,28,04,58,0.00
2009,03,28,04,59,0.00
2009,03,28,05,00,0.00
2009,03,28,05,01,0.00
2009,03,28,05,02,0.00
2009,03,28,05,03,0.00
2009,03,28,05,04,0.30
2009,03,28,05,05,0.10
2009,03,28,05,06,0.00
2009,03,28,05,07,0.00
2009,03,28,05,08,0.00
2009,03,28,05,09,0.00
2009,03,28,05,10,0.00
2009,03,28,05,11,0.00
2009,03,28,05,12,0.00
2009,03,28,05,13,0.00
2009,03,28,05,14,0.00
2009,03,28,05,15,0.00
2009,03,28,05,16,0.00
2009,03,28,05,17,0.00
2009,03,28,05,18,0.00
2009,03,28,05,19,0.00
2009,03,28,05,20,0.00
2009,03,28,05,21,0.00
2009,03,28,05,22,0.00
2009,03,28,05,23,0.00
2009,03,28,05,24,0.00
2009,03,28,05,25,0.00
2009,03,28,05,26,0.10
2009,03,28,05,27,0.30
2009,03,28,05,28,0.00
2009,03,28,05,29,0.00
2009,03,28,05,30,0.00
2009,03,28,05,31,0.00
2009,03,28,05,32,0.00
2009,03,28,05,33,0.00
2009,03,28,05,34,0.00
2009,03,28,05,35,0.00
2009,03,28,05,36,0.00
2009,03,28,05,37,0.00
2009,03,28,05,38,0.00
2009,03,28,05,39,0.00
2009,03,28,05,40,0.00
2009,03,28,05,41,0.00
2009,03,28,05,42,0.00
2009,03,28,05,43,0.00
2009,03,28,05,44,0.00
2009,03,28,05,45,0.00
2009,03,28,05,46,0.00
2009,03,28,05,47,0.00
2009,03,28,05,48,0.00
2009,03,28,05,49,0.00
2009,03,28,05,50,0.00
2009,03,28,05,51,0.10
2009,03,28,05,52,0.00
2009,03,28,05,53,0.00
2009,03,28,05,54,0.00
2009,03,28,05,55,0.00
2009,03,28,05,56,0.00
2009,03,28,05,57,0.00
2009,03,28,05,58,0.00
2009,03,28,05,59,0.00
2009,03,28,06,00,0.30
2009,03,28,06,01,0.10
2009,03,28,06,02,0.10
2009,03,28,06,03,0.00
2009,03,28,06,04,0.00
2009,03,28,06,05,0.20
2009,03,28,06,06,0.00
2009,03,28,06,07,0.00
2009,03,28,06,08,0.00
2009,03,28,06,09,0.00
2009,03,28,06,10,0.00
2009,03,28,06,11,0.00
2009,03,28,06,12,0.00
2009,03,28,06,13,0.00
2009,03,28,06,14,0.00
2009,03,28,06,15,0.00
2009,03,28,06,16,0.00
2009,03,28,06,17,0.00
2009,03,28,06,18,0.00
2009,03,28,06,19,0.00
2009,03,28,06,20,0.00
2009,03,28,06,21,0.00
2009,03,28,06,22,0.00
2009,03,28,06,23,0.00
2009,03,28,06,24,0.00
2009,03,28,06,25,0.00
2009,03,28,06,26,0.00
2009,03,28,06,27,0.00
2009,03,28,06,28,0.00
2009,03,28,06,29,0.00
2009,03,28,06,30,0.00
2009,03,28,06,31,0.00
2009,03,28,06,32,0.00
2009,03,28,06,33,0.00
2009,03,28,06,34,0.00
2009,03,28,06,35,0.00
2009,03,28,06,36,0.00
2009,03,28,06,37,0.00
2009,03,28,06,38,0.00
2009,03,28,06,39,0.00
2009,03,28,06,40,0.00
2009,03,28,06,41,0.00
2009,03,28,06,42,0.00
2009,03,28,06,43,0.00
2009,03,28,06,44,0.20
2009,03,28,06,45,0.00
2009,03,28,06,46,0.00
2009,03,28,06,47,0.00
2009,03,28,06,48,0.00
2009,03,28,06,49,0.00
2009,03,28,06,50,0.00
2009,03,28,06,51,0.00
2009,03,28,06,52,0.00
2009,03,28,06,53,0.00
2009,03,28,06,54,0.00
2009,03,28,06,55,0.00
2009,03,28,06,56,0.00
2009,03,28,06,57,0.00
2009,03,28,06,58,0.00
2009,03,28,06,59,0.00
2009,03,28,07,00,0.00
2009,03,28,07,01,0.00
2009,03,28,07,02,0.00
2009,03,28,07,03,0.00
2009,03,28,07,04,0.00
2009,03,28,07,05,0.00
2009,03,28,07,06,0.00
2009,03,28,07,07,0.00
2009,03,28,07,08,0.00
2009,03,28,07,09,0.00
2009,03,28,07,10,0.00
2009,03,28,07,11,0.00
2009,03,28,07,12,0.00
2009,03,28,07,13,0.00
2009,03,28,07,14,0.00
2009,03,28,07,15,0.00
2009,03,28,07,16,0.00
2009,03,28,07,17,0.00
2009,03,28,07,18,0.00
2009,03,28,07,19,0.60
2009,03,28,07,20,0.00
2009,03,28,07,21,0.00
2009,03,28,07,22,0.00
2009,03,28,07,23,0.00
2009,03,28,07,24,0.00
2009,03,28,07,25,0.00
2009,03,28,07,26,0.00
2009,03,28,07,27,0.00
2009,03,28,07,28,0.00
2009,03,28,07,29,0.00
2009,03,28,07,30,0.00
2009,03,28,07,31,0.00
2009,03,28,07,32,0.00
2009,03,28,07,33,0.00
2009,03,28,07,34,0.00
2009,03,28,07,35,0.00
2009,03,28,07,36,0.00
2009,03,28,07,37,0.00
2009,03,28,07,38,0.10
2009,03,28,07,39,0.00
2009,03,28,07,40,0.00
2009,03,28,07,41,0.00
2009,03,28,07,42,0.00
2009,03,28,07,43,0.00
2009,03,28,07,44,0.00
2009,03,28,07,45,0.00
2009,03,28,07,46,0.00
2009,03,28,07,47,0.00
2009,03,28,07,48,0.00
2009,03,28,07,49,0.00
2009,03,28,07,50,0.00
2009,03,28,07,51,0.00
2009,03,28,07,52,0.00
2009,03,28,07,53,0.00
2009,03,28,07,54,0.00
2009,03,28,07,55,0.00
2009,03,28,07,56,0.00
2009,03,28,07,57,0.00
2009,03,28,07,58,0.00
2009,03,28,07,59,0.00
2009,03,28,08,00,0.00
2009,03,28,08,01,0.00
2009,03,28,08,02,0.00
2009,03,28,08,03,0.00
2009,03,28,08,04,0.00
2009,03,28,08,05,0.00
2009,03,28,08,06,0.00
2009,03,28,08,07,0.00
2009,03,28,08,08,0.00
2009,03,28,08,09,0.00
2009,03,28,08,10,0.00
2009,03,28,08,11,0.00
2009,03,28,08,12,0.00
2009,03,28,08,13,0.00
2009,03,28,08,14,0.00
2009,03,28,08,15,0.00
2009,03,28,08,16,0.40
2009,03,28,08,17,0.50
2009,03,28,08,18,0.00
2009,03,28,08,19,0.00
2009,03,28,08,20,0.00
2009,03,28,08,21,0.00
2009,03,28,08,22,0.00
2009,03,28,08,23,0.00
2009,03,28,08,24,0.00
2009,03,28,08,25,0.00
2009,03,28,08,26,0.00
2009,03,28,08,27,0.00
2009,03,28,08,28,0.00
2009,03,28,08,29,0.00
2009,03,28,08,30,0.00
2009,03,28,08,31,0.00
2009,03,28,08,32,0.20
2009,03,28,08,33,0.00
2009,03,28,08,34,0.00
2009,03,28,08,35,0.00
2009,03,28,08,36,0.00
2009,03,28,08,37,0.00
2009,03,28,08,38,0.00
2009,03,28,08,39,0.10
2009,03,28,08,40,0.00
2009,03,28,08,41,0.00
2009,03,28,08,42,0.00
2009,03,28,08,43,0.00
2009,03,28,08,44,0.10
2009,03,28,08,45,0.00
2009,03,28,08,46,0.00
2009,03,28,08,47,0.10
2009,03,28,08,48,0.30
2009,03,28,08,49,0.50
2009,03,28,08,50,0.00
2009,03,28,08,51,0.00
2009,03,28,08,52,0.00
2009,03,28,08,53,0.00
2009,03,28,08,54,0.00
2009,03,28,08,55,0.00
2009,03,28,08,56,0.00
2009,03,28,08,57,0.90
2009,03,28,08,58,0.30
2009,03,28,08,59,0.00
2009,03,28,09,00,0.00
2009,03,28,09,01,0.40
2009,03,28,09,02,0.10
2009,03,28,09,03,0.00
2009,03,28,09,04,0.40
2009,03,28,09,05,0.30
2009,03,28,09,06,0.10
2009,03,28,09,07,0.50
2009,03,28,09,08,0.00
2009,03,28,09,09,0.00
2009,03,28,09,10,0.00
2009,03,28,09,11,0.00
2009,03,28,09,12,0.10
2009,03,28,09,13,0.10
2009,03,28,09,14,0.00
2009,03,28,09,15,0.00
2009,03,28,09,16,0.00
2009,03,28,09,17,0.00
2009,03,28,09,18,0.00
2009,03,28,09,19,0.00
2009,03,28,09,20,0.00
2009,03,28,09,21,0.00
2009,03,28,09,22,0.00
2009,03,28,09,23,0.00
2009,03,28,09,24,0.00
2009,03,28,09,25,0.00
2009,03,28,09,26,0.00
2009,03,28,09,27,0.00
2009,03,28,09,28,0.00
2009,03,28,09,29,0.00
2009,03,28,09,30,0.00
2009,03,28,09,31,0.00
2009,03,28,09,32,0.00
2009,03,28,09,33,0.00
2009,03,28,09,34,0.30
2009,03,28,09,35,0.10
2009,03,28,09,36,0.00
2009,03,28,09,37,0.00
2009,03,28,09,38,0.00
2009,03,28,09,39,0.00
2009,03,28,09,40,0.00
2009,03,28,09,41,0.00
2009,03,28,09,42,0.00
2009,03,28,09,43,0.00
2009,03,28,09,44,0.00
2009,03,28,09,45,0.00
2009,03,28,09,46,0.00
2009,03,28,09,47,0.00
2009,03,28,09,48,0.10
2009,03,28,09,49,0.20
2009,03,28,09,50,0.00
2009,03,28,09,51,0.00
2009,03,28,09,52,0.00
2009,03,28,09,53,0.00
2009,03,28,09,54,0.00
2009,03,28,09,55,0.00
2009,03,28,09,56,0.00
2009,03,28,09,57,0.00
2009,03,28,09,58,0.00
2009,03,28,09,59,0.00
2009,03,28,10,00,0.00
2009,03,28,10,01,0.00
2009,03,28,10,02,0.00
2009,03,28,10,03,0.00
2009,03,28,10,04,0.00
2009,03,28,10,05,0.10
2009,03,28,10,06,0.00
2009,03,28,10,07,0.00
2009,03,28,10,08,0.00
2009,03,28,10,09,0.00
2009,03,28,10,10,0.00
2009,03,28,10,11,0.00
2009,03,28,10,12,0.00
2009,03,28,10,13,0.00
2009,03,28,10,14,0.00
2009,03,28,10,15,0.00
2009,03,28,10,16,0.00
2009,03,28,10,17,0.00
2009,03,28,10,18,0.30
2009,03,28,10,19,0.40
2009,03,28,10,20,0.20
2009,03,28,10,21,0.00
2009,03,28,10,22,0.00
2009,03,28,10,23,0.00
2009,03,28,10,24,0.00
2009,03,28,10,25,0.10
2009,03,28,10,26,0.20
2009,03,28,10,27,0.80
2009,03,28,10,28,0.30
2009,03,28,10,29,0.00
2009,03,28,10,30,0.00
2009,03,28,10,31,0.00
2009,03,28,10,32,0.00
2009,03,28,10,33,0.00
2009,03,28,10,34,0.00
2009,03,28,10,35,0.00
2009,03,28,10,36,0.00
2009,03,28,10,37,0.10
2009,03,28,10,38,0.00
2009,03,28,10,39,0.00
2009,03,28,10,40,0.10
2009,03,28,10,41,0.00
2009,03,28,10,42,0.00
2009,03,28,10,43,0.00
2009,03,28,10,44,1.20
2009,03,28,10,45,0.30
2009,03,28,10,46,0.30
2009,03,28,10,47,0.10
2009,03,28,10,48,1.00
2009,03,28,10,49,2.90
2009,03,28,10,50,1.30
2009,03,28,10,51,0.30
2009,03,28,10,52,0.10
2009,03,28,10,53,0.20
2009,03,28,10,54,1.00
2009,03,28,10,55,1.50
2009,03,28,10,56,0.60
2009,03,28,10,57,0.00
2009,03,28,10,58,0.40
2009,03,28,10,59,0.00
2009,03,28,11,00,0.00
2009,03,28,11,01,3.50
2009,03,28,11,02,3.80
2009,03,28,11,03,5.10
2009,03,28,11,04,0.80
2009,03,28,11,05,0.10
2009,03,28,11,06,0.10
2009,03,28,11,07,0.00
2009,03,28,11,08,0.10
2009,03,28,11,09,0.80
2009,03,28,11,10,0.60
2009,03,28,11,11,4.70
2009,03,28,11,12,2.90
2009,03,28,11,13,1.50
2009,03,28,11,14,0.00
2009,03,28,11,15,0.10
2009,03,28,11,16,1.00
2009,03,28,11,17,0.20
2009,03,28,11,18,1.30
2009,03,28,11,19,0.30
2009,03,28,11,20,0.80
2009,03,28,11,21,0.70
2009,03,28,11,22,1.10
2009,03,28,11,23,1.60
2009,03,28,11,24,1.80
2009,03,28,11,25,4.50
2009,03,28,11,26,3.50
2009,03,28,11,27,3.10
2009,03,28,11,28,0.30
2009,03,28,11,29,1.40
2009,03,28,11,30,0.50
2009,03,28,11,31,1.60
2009,03,28,11,32,2.40
2009,03,28,11,33,0.60
2009,03,28,11,34,0.30
2009,03,28,11,35,0.50
2009,03,28,11,36,1.60
2009,03,28,11,37,0.40
2009,03,28,11,38,0.10
2009,03,28,11,39,1.50
2009,03,28,11,40,2.00
2009,03,28,11,41,1.00
2009,03,28,11,42,0.10
2009,03,28,11,43,1.20
2009,03,28,11,44,0.60
2009,03,28,11,45,0.00
2009,03,28,11,46,1.50
2009,03,28,11,47,3.20
2009,03,28,11,48,1.40
2009,03,28,11,49,1.10
2009,03,28,11,50,1.30
2009,03,28,11,51,0.00
2009,03,28,11,52,0.30
2009,03,28,11,53,0.00
2009,03,28,11,54,0.90
2009,03,28,11,55,0.00
2009,03,28,11,56,0.10
2009,03,28,11,57,0.30
2009,03,28,11,58,0.00
2009,03,28,11,59,0.20
2009,03,28,12,00,0.00
2009,03,28,12,01,1.10
2009,03,28,12,02,1.50
2009,03,28,12,03,1.70
2009,03,28,12,04,0.30
2009,03,28,12,05,1.90
2009,03,28,12,06,0.10
2009,03,28,12,07,2.70
2009,03,28,12,08,4.00
2009,03,28,12,09,3.60
2009,03,28,12,10,1.60
2009,03,28,12,11,1.00
2009,03,28,12,12,0.30
2009,03,28,12,13,4.80
2009,03,28,12,14,2.00
2009,03,28,12,15,0.40
2009,03,28,12,16,2.30
2009,03,28,12,17,1.90
2009,03,28,12,18,0.40
2009,03,28,12,19,0.20
2009,03,28,12,20,4.60
2009,03,28,12,21,3.70
2009,03,28,12,22,5.40
2009,03,28,12,23,2.10
2009,03,28,12,24,1.80
2009,03,28,12,25,0.80
2009,03,28,12,26,0.20
2009,03,28,12,27,1.30
2009,03,28,12,28,0.10
2009,03,28,12,29,1.60
2009,03,28,12,30,1.00
2009,03,28,12,31,0.30
2009,03,28,12,32,1.20
2009,03,28,12,33,3.60
2009,03,28,12,34,0.30
2009,03,28,12,35,5.50
2009,03,28,12,36,3.50
2009,03,28,12,37,0.90
2009,03,28,12,38,2.10
2009,03,28,12,39,0.70
2009,03,28,12,40,0.80
2009,03,28,12,41,0.10
2009,03,28,12,42,0.90
2009,03,28,12,43,2.40
2009,03,28,12,44,1.90
2009,03,28,12,45,2.10
2009,03,28,12,46,0.80
2009,03,28,12,47,5.10
2009,03,28,12,48,3.40
2009,03,28,12,49,2.90
2009,03,28,12,50,5.30
2009,03,28,12,51,2.50
2009,03,28,12,52,5.10
2009,03,28,12,53,5.40
2009,03,28,12,54,3.00
2009,03,28,12,55,4.40
2009,03,28,12,56,4.50
2009,03,28,12,57,4.70
2009,03,28,12,58,4.90
2009,03,28,12,59,1.70
2009,03,28,13,00,0.40
2009,03,28,13,01,1.00
2009,03,28,13,02,1.00
2009,03,28,13,03,0.30
2009,03,28,13,04,0.90
2009,03,28,13,05,2.50
2009,03,28,13,06,3.30
2009,03,28,13,07,2.70
2009,03,28,13,08,3.30
2009,03,28,13,09,1.10
2009,03,28,13,10,0.10
2009,03,28,13,11,0.10
2009,03,28,13,12,0.80
2009,03,28,13,13,0.20
2009,03,28,13,14,3.20
2009,03,28,13,15,1.80
2009,03,28,13,16,4.20
2009,03,28,13,17,2.40
2009,03,28,13,18,3.10
2009,03,28,13,19,1.60
2009,03,28,13,20,1.00
2009,03,28,13,21,3.40
2009,03,28,13,22,0.10
2009,03,28,13,23,0.20
2009,03,28,13,24,0.40
2009,03,28,13,25,1.90
2009,03,28,13,26,0.10
2009,03,28,13,27,1.30
2009,03,28,13,28,1.60
2009,03,28,13,29,1.60
2009,03,28,13,30,0.30
2009,03,28,13,31,0.20
2009,03,28,13,32,2.10
2009,03,28,13,33,1.70
2009,03,28,13,34,3.50
2009,03,28,13,35,1.20
2009,03,28,13,36,3.80
2009,03,28,13,37,6.90
2009,03,28,13,38,0.10
2009,03,28,13,39,3.40
2009,03,28,13,40,2.50
2009,03,28,13,41,4.60
2009,03,28,13,42,1.90
2009,03,28,13,43,0.30
2009,03,28,13,44,4.60
2009,03,28,13,45,3.90
2009,03,28,13,46,0.90
2009,03,28,13,47,2.40
2009,03,28,13,48,3.20
2009,03,28,13,49,2.40
2009,03,28,13,50,0.30
2009,03,28,13,51,0.60
2009,03,28,13,52,0.90
2009,03,28,13,53,2.90
2009,03,28,13,54,1.00
2009,03,28,13,55,4.80
2009,03,28,13,56,1.90
2009,03,28,13,57,3.40
2009,03,28,13,58,2.30
2009,03,28,13,59,4.90
2009,03,28,14,00,6.10
2009,03,28,14,01,5.50
2009,03,28,14,02,4.70
2009,03,28,14,03,5.70
2009,03,28,14,04,2.50
2009,03,28,14,05,2.90
2009,03,28,14,06,0.90
2009,03,28,14,07,1.90
2009,03,28,14,08,4.50
2009,03,28,14,09,7.30
2009,03,28,14,10,8.30
2009,03,28,14,11,3.30
2009,03,28,14,12,2.70
2009,03,28,14,13,3.80
2009,03,28,14,14,3.60
2009,03,28,14,15,5.40
2009,03,28,14,16,9.20
2009,03,28,14,17,7.90
2009,03,28,14,18,2.50
2009,03,28,14,19,0.90
2009,03,28,14,20,2.00
2009,03,28,14,21,4.10
2009,03,28,14,22,1.70
2009,03,28,14,23,1.90
2009,03,28,14,24,5.60
2009,03,28,14,25,4.30
2009,03,28,14,26,1.90
2009,03,28,14,27,0.20
2009,03,28,14,28,1.40
2009,03,28,14,29,6.20
2009,03,28,14,30,5.50
2009,03,28,14,31,3.10
2009,03,28,14,32,5.00
2009,03,28,14,33,1.90
2009,03,28,14,34,0.50
2009,03,28,14,35,0.40
2009,03,28,14,36,2.80
2009,03,28,14,37,1.00
2009,03,28,14,38,3.20
2009,03,28,14,39,1.10
2009,03,28,14,40,0.90
2009,03,28,14,41,1.30
2009,03,28,14,42,4.30
2009,03,28,14,43,6.70
2009,03,28,14,44,3.00
2009,03,28,14,45,4.40
2009,03,28,14,46,3.30
2009,03,28,14,47,1.40
2009,03,28,14,48,4.30
2009,03,28,14,49,1.40
2009,03,28,14,50,0.30
2009,03,28,14,51,2.30
2009,03,28,14,52,0.60
2009,03,28,14,53,0.70
2009,03,28,14,54,3.50
2009,03,28,14,55,7.40
2009,03,28,14,56,5.00
2009,03,28,14,57,8.40
2009,03,28,14,58,4.80
2009,03,28,14,59,2.00
2009,03,28,15,00,2.60
2009,03,28,15,01,4.10
2009,03,28,15,02,2.90
2009,03,28,15,03,2.50
2009,03,28,15,04,0.40
2009,03,28,15,05,2.10
2009,03,28,15,06,10.40
2009,03,28,15,07,6.80
2009,03,28,15,08,4.40
2009,03,28,15,09,1.20
2009,03,28,15,10,1.00
2009,03,28,15,11,3.40
2009,03,28,15,12,4.00
2009,03,28,15,13,2.80
2009,03,28,15,14,0.40
2009,03,28,15,15,0.60
2009,03,28,15,16,0.90
2009,03,28,15,17,0.50
2009,03,28,15,18,0.40
2009,03,28,15,19,2.60
2009,03,28,15,20,12.90
2009,03,28,15,21,5.40
2009,03,28,15,22,3.20
2009,03,28,15,23,4.50
2009,03,28,15,24,6.00
2009,03,28,15,25,3.50
2009,03,28,15,26,10.40
2009,03,28,15,27,1.80
2009,03,28,15,28,1.00
2009,03,28,15,29,5.10
2009,03,28,15,30,4.50
2009,03,28,15,31,2.80
2009,03,28,15,32,8.60
2009,03,28,15,33,9.40
2009,03,28,15,34,7.90
2009,03,28,15,35,2.60
2009,03,28,15,36,2.50
2009,03,28,15,37,1.30
2009,03,28,15,38,1.10
2009,03,28,15,39,4.80
2009,03,28,15,40,5.50
2009,03,28,15,41,1.40
2009,03,28,15,42,3.20
2009,03,28,15,43,8.10
2009,03,28,15,44,8.40
2009,03,28,15,45,5.90
2009,03,28,15,46,8.40
2009,03,28,15,47,6.70
2009,03,28,15,48,3.80
2009,03,28,15,49,10.50
2009,03,28,15,50,6.30
2009,03,28,15,51,6.70
2009,03,28,15,52,4.30
2009,03,28,15,53,5.80
2009,03,28,15,54,8.10
2009,03,28,15,55,5.00
2009,03,28,15,56,6.40
2009,03,28,15,57,4.00
2009,03,28,15,58,4.00
2009,03,28,15,59,1.00
2009,03,28,16,00,1.40
2009,03,28,16,01,5.00
2009,03,28,16,02,8.30
2009,03,28,16,03,8.20
2009,03,28,16,04,6.50
2009,03,28,16,05,3.80
2009,03,28,16,06,1.90
2009,03,28,16,07,5.40
2009,03,28,16,08,2.80
2009,03,28,16,09,2.50
2009,03,28,16,10,4.80
2009,03,28,16,11,5.70
2009,03,28,16,12,4.70
2009,03,28,16,13,4.70
2009,03,28,16,14,1.40
2009,03,28,16,15,3.10
2009,03,28,16,16,1.30
2009,03,28,16,17,8.60
2009,03,28,16,18,5.30
2009,03,28,16,19,5.30
2009,03,28,16,20,8.90
2009,03,28,16,21,7.30
2009,03,28,16,22,6.60
2009,03,28,16,23,2.20
2009,03,28,16,24,3.40
2009,03,28,16,25,4.70
2009,03,28,16,26,9.00
2009,03,28,16,27,6.70
2009,03,28,16,28,1.00
2009,03,28,16,29,5.70
2009,03,28,16,30,6.70
2009,03,28,16,31,1.50
2009,03,28,16,32,5.20
2009,03,28,16,33,5.40
2009,03,28,16,34,2.20
2009,03,28,16,35,5.90
2009,03,28,16,36,2.70
2009,03,28,16,37,3.40
2009,03,28,16,38,4.40
2009,03,28,16,39,5.00
2009,03,28,16,40,2.60
2009,03,28,16,41,4.00
2009,03,28,16,42,2.30
2009,03,28,16,43,1.60
2009,03,28,16,44,2.90
2009,03,28,16,45,7.30
2009,03,28,16,46,7.80
2009,03,28,16,47,9.20
2009,03,28,16,48,6.00
2009,03,28,16,49,5.90
2009,03,28,16,50,8.10
2009,03,28,16,51,8.20
2009,03,28,16,52,8.10
2009,03,28,16,53,6.60
2009,03,28,16,54,6.90
2009,03,28,16,55,9.00
2009,03,28,16,56,5.20
2009,03,28,16,57,6.50
2009,03,28,16,58,4.30
2009,03,28,16,59,2.20
2009,03,28,17,00,9.90
2009,03,28,17,01,5.40
2009,03,28,17,02,6.50
2009,03,28,17,03,9.60
2009,03,28,17,04,9.70
2009,03,28,17,05,2.90
2009,03,28,17,06,5.70
2009,03,28,17,07,2.50
2009,03,28,17,08,5.60
2009,03,28,17,09,3.80
2009,03,28,17,10,3.40
2009,03,28,17,11,5.40
2009,03,28,17,12,6.90
2009,03,28,17,13,3.40
2009,03,28,17,14,8.80
2009,03,28,17,15,3.90
2009,03,28,17,16,6.90
2009,03,28,17,17,5.90
2009,03,28,17,18,13.20
2009,03,28,17,19,6.20
2009,03,28,17,20,8.00
2009,03,28,17,21,8.70
2009,03,28,17,22,5.60
2009,03,28,17,23,7.70
2009,03,28,17,24,5.00
2009,03,28,17,25,0.40
2009,03,28,17,26,7.60
2009,03,28,17,27,3.30
2009,03,28,17,28,4.20
2009,03,28,17,29,8.00
2009,03,28,17,30,4.90
2009,03,28,17,31,1.90
2009,03,28,17,32,4.30
2009,03,28,17,33,1.30
2009,03,28,17,34,5.20
2009,03,28,17,35,11.10
2009,03,28,17,36,5.50
2009,03,28,17,37,3.70
2009,03,28,17,38,6.30
2009,03,28,17,39,8.30
2009,03,28,17,40,9.60
2009,03,28,17,41,3.70
2009,03,28,17,42,8.10
2009,03,28,17,43,2.70
2009,03,28,17,44,2.30
2009,03,28,17,45,8.60
2009,03,28,17,46,7.50
2009,03,28,17,47,3.80
2009,03,28,17,48,4.00
2009,03,28,17,49,3.80
2009,03,28,17,50,6.40
2009,03,28,17,51,3.60
2009,03,28,17,52,5.90
2009,03,28,17,53,4.30
2009,03,28,17,54,3.00
2009,03,28,17,55,5.50
2009,03,28,17,56,3.50
2009,03,28,17,57,6.00
2009,03,28,17,58,5.70
2009,03,28,17,59,5.50
2009,03,28,18,00,6.70
2009,03,28,18,01,5.20
2009,03,28,18,02,8.10
2009,03,28,18,03,2.10
2009,03,28,18,04,4.80
2009,03,28,18,05,2.70
2009,03,28,18,06,6.60
2009,03,28,18,07,11.40
2009,03,28,18,08,2.60
2009,03,28,18,09,6.00
2009,03,28,18,10,11.30
2009,03,28,18,11,5.60
2009,03,28,18,12,1.50
2009,03,28,18,13,2.60
2009,03,28,18,14,3.70
2009,03,28,18,15,0.30
2009,03,28,18,16,5.00
2009,03,28,18,17,2.00
2009,03,28,18,18,0.90
2009,03,28,18,19,4.80
2009,03,28,18,20,5.80
2009,03,28,18,21,5.90
2009,03,28,18,22,7.20
2009,03,28,18,23,5.40
2009,03,28,18,24,9.10
2009,03,28,18,25,11.20
2009,03,28,18,26,12.10
2009,03,28,18,27,7.40
2009,03,28,18,28,5.10
2009,03,28,18,29,12.50
2009,03,28,18,30,13.40
2009,03,28,18,31,7.00
2009,03,28,18,32,7.50
2009,03,28,18,33,11.90
2009,03,28,18,34,6.90
2009,03,28,18,35,7.70
2009,03,28,18,36,8.90
2009,03,28,18,37,8.00
2009,03,28,18,38,11.60
2009,03,28,18,39,14.00
2009,03,28,18,40,9.00
2009,03,28,18,41,5.80
2009,03,28,18,42,9.80
2009,03,28,18,43,5.20
2009,03,28,18,44,8.40
2009,03,28,18,45,7.90
2009,03,28,18,46,7.40
2009,03,28,18,47,5.70
2009,03,28,18,48,10.40
2009,03,28,18,49,12.10
2009,03,28,18,50,8.80
2009,03,28,18,51,3.10
2009,03,28,18,52,4.40
2009,03,28,18,53,2.50
2009,03,28,18,54,2.30